アトラス彗星

C/2020 R7 ( ATLAS )

English version
Home page
Updated on September 11, 2022

---------------------------------------------------------------------

・ プロフィール

発見日 2020年9月15日
発見光度 19.0等
発見者 Asteroid Terrestrial-Impact Last Alert System (ATLAS) search program

・ 写真集

・ 軌道要素

Epoch 2022 Aug. 9.0 TT = JDT 2459800.5
T 2022 Sept. 16.23231 TT                                Rudenko
q   2.9559743            (2000.0)            P               Q
z  -0.0000464      Peri.  347.83629     +0.05933565     -0.41757280
 +/-0.0000007      Node   268.28193     -0.82289186     -0.53464171
e   1.0001371      Incl.  114.89077     -0.56509137     +0.73470484
From 359 observations 2019 Dec. 3-2022 Sept. 7, mean residual 0".5.

・ 星図

・ 光度変化

        m1 = 9.0 + 5 logΔ + 6.0 log r

---------------------------------------------------------------------

軌道要素はM.P.E.C. 2022-R139に掲載されたものです。
星図はステラナビゲータ Ver.10 (アストロアーツ) で作成したものです。
光度グラフはComet for Windowsで作成したものです。

---------------------------------------------------------------------

Copyright(C) Seiichi Yoshida (comet@aerith.net). All rights reserved.